GW6342 Weather Reports


time (UTC)temp
C
wind
direction
speed
KPH
gust
KPH
rain 1hr
cm
rain 24hr
cm
rain mn
cm
humidity
%
barometer
mb
20260510204527 28 70 4.8 11.3 0.00 0.66 0.00 65 1015.5
20260510203032 28 70 4.8 8.0 0.00 0.71 0.00 67 1015.4
20260510201527 28 70 3.2 11.3 0.00 0.79 0.00 63 1015.3
20260510200022 28 70 6.4 9.7 0.00 0.86 0.00 69 1015.3
20260510194526 28 70 8.0 11.3 0.00 1.07 0.00 66 1015.4
20260510193026 27 70 0.0 8.0 0.00 1.22 0.00 65 1015.6
20260510191540 27 70 3.2 11.3 0.00 1.40 0.00 70 1015.7
20260510190027 27 70 4.8 17.7 0.00 1.60 0.00 69 1015.8
20260510184521 27 70 4.8 8.0 0.00 1.75 0.00 71 1016.0
20260510183024 26 70 3.2 12.9 0.00 1.80 0.00 73 1016.3
20260510181524 27 70 1.6 8.0 0.00 1.80 0.00 73 1016.5
20260510180028 27 70 1.6 8.0 0.00 1.80 0.00 73 1016.8
20260510174506 26 70 1.6 11.3 0.00 1.80 0.00 75 1016.8
20260510173003 26 70 4.8 14.5 0.00 1.83 0.00 78 1017.0
20260510171510 26 70 1.6 8.0 0.00 1.83 0.00 78 1017.1
20260510164520 25 70 3.2 11.3 0.00 1.83 0.00 80 1017.5
20260510163004 24 70 1.6 9.7 0.00 1.85 0.00 81 1017.4
20260510160011 23 70 1.6 6.4 0.00 1.91 0.00 83 1017.6
20260510154515 23 70 0.0 6.4 0.00 1.96 0.00 86 1017.7
20260510153019 23 70 1.6 6.4 0.00 2.13 0.00 85 1017.7
20260510151504 22 70 1.6 8.0 0.00 2.24 0.00 89 1017.5
20260510150008 21 70 0.0 9.7 0.00 2.36 0.00 94 1017.6
20260510144523 20 70 3.2 9.7 0.00 2.46 0.00 96 1017.5
20260510143033 20 70 3.2 6.4 0.00 2.59 0.00 96 1017.6
20260510141518 19 70 3.2 4.8 0.00 2.74 0.00 97 1017.6
20260510140005 19 70 3.2 9.7 0.00 2.95 0.00 97 1017.5
20260510134509 18 70 3.2 9.7 0.00 3.48 0.00 97 1017.7
20260510133011 18 70 4.8 8.0 0.00 3.68 0.00 97 1017.4
20260510131518 18 70 3.2 8.0 0.00 3.84 0.00 97 1017.3
20260510130020 18 70 1.6 6.4 0.00 3.94 0.00 97 1017.1
20260510124526 18 70 4.8 6.4 0.00 4.11 0.00 97 1016.9
20260510123019 18 70 1.6 6.4 0.00 4.39 0.00 97 1016.6
20260510121512 17 70 1.6 3.2 0.00 5.56 0.00 97 1016.2
20260510120022 17 70 0.0 1.6 0.00 8.92 0.00 97 1016.1
20260510114524 17 70 0.0 0.0 0.00 9.27 0.00 97 1015.9
20260510113024 17 70 0.0 0.0 0.00 9.30 0.00 97 1015.5
20260510111510 17 70 0.0 0.0 0.00 9.30 0.00 97 1015.1
20260510110030 17 70 0.0 0.0 0.00 9.30 0.00 97 1014.6
20260510104520 17 70 0.0 0.0 0.00 9.30 0.00 97 1014.4
20260510103023 17 70 0.0 0.0 0.00 9.30 0.00 97 1014.3
20260510101526 17 70 0.0 1.6 0.00 9.30 0.00 97 1014.1
20260510100015 17 70 0.0 1.6 0.00 9.30 0.00 97 1013.9
20260510091526 17 70 0.0 3.2 0.00 9.30 0.00 97 1013.9
20260510090025 18 70 1.6 3.2 0.00 9.30 0.00 97 1013.9
20260510081525 18 70 0.0 0.0 0.00 9.37 0.00 97 1013.8
20260510080026 18 70 0.0 0.0 0.00 9.40 0.00 97 1013.7
20260510074525 18 70 0.0 0.0 0.00 9.42 0.00 97 1013.7
20260510073017 18 70 0.0 0.0 0.00 9.42 0.00 97 1013.4
20260510071520 18 70 0.0 0.0 0.00 9.47 0.00 97 1013.3
20260510070030 18 70 0.0 0.0 0.00 9.50 0.00 97 1013.2
20260510064527 18 70 0.0 0.0 0.00 9.50 0.00 97 1013.6
20260510063030 18 70 0.0 0.0 0.00 9.50 0.00 97 1013.6
20260510061517 18 70 0.0 0.0 0.00 9.50 0.00 97 1013.6
20260510060018 18 70 0.0 0.0 0.00 9.50 0.00 97 1013.7
20260510054522 18 70 0.0 0.0 0.00 9.53 0.00 97 1013.9
20260510053046 18 70 0.0 0.0 0.00 9.55 0.00 97 1013.7
20260510051529 18 70 0.0 0.0 0.00 9.60 0.00 97 1013.8
20260510050019 18 70 0.0 3.2 0.00 9.68 0.00 97 1013.7
20260510044523 18 70 0.0 0.0 0.00 9.70 9.68 97 1013.8
20260510043039 18 70 0.0 1.6 0.00 9.73 9.68 97 1013.6
20260510041528 18 70 1.6 1.6 0.00 9.73 9.68 97 1013.5
20260510040035 18 70 1.6 1.6 0.00 9.73 9.68 97 1013.7
20260510034519 18 70 1.6 3.2 0.00 9.73 9.68 97 1013.5
20260510033022 18 70 1.6 6.4 0.00 9.73 9.68 97 1013.8
20260510031527 18 70 0.0 3.2 0.00 9.73 9.68 97 1014.1
20260510030028 19 70 1.6 3.2 0.00 9.73 9.68 97 1014.2
20260510024511 19 70 0.0 0.0 0.00 9.73 9.68 97 1014.1
20260510023014 18 70 0.0 0.0 0.00 9.73 9.68 97 1013.6
20260510020008 18 70 1.6 3.2 0.00 9.73 9.68 97 1013.4
20260510014513 19 70 0.0 4.8 0.03 9.73 9.68 97 1013.7
20260510013022 19 70 0.0 0.0 0.08 9.73 9.68 97 1013.5
20260510011514 19 70 0.0 6.4 0.10 9.73 9.68 97 1013.2
20260510004514 18 70 6.4 12.9 0.10 9.73 9.65 97 1011.9
20260510003015 18 70 4.8 9.7 0.10 9.70 9.60 97 1012.9
20260510001518 18 70 1.6 9.7 0.13 9.73 9.58 97 1012.3
20260510000023 18 70 1.6 3.2 0.18 9.75 9.58 96 1012.8
20260509234508 18 70 1.6 6.4 0.20 9.73 9.55 96 1012.9
20260509233012 18 70 3.2 8.0 0.18 9.68 9.50 96 1012.7
20260509231519 18 70 3.2 4.8 0.23 9.63 9.45 96 1012.5
20260509230018 18 70 0.0 4.8 0.25 9.58 9.40 96 1012.7
20260509224507 18 70 0.0 3.2 0.25 9.58 9.35 96 1012.5
20260509223011 18 70 0.0 0.0 0.23 9.70 9.32 96 1012.2
20260509221513 18 70 0.0 6.4 0.15 9.75 9.22 96 1012.8
20260509220020 18 70 3.2 4.8 0.10 9.83 9.14 96 1012.5
20260509214519 18 70 1.6 8.0 0.08 9.86 9.09 96 1012.1
20260509213008 18 70 3.2 3.2 0.13 9.91 9.09 96 1011.9
20260509211511 18 70 1.6 4.8 0.18 10.01 9.07 96 1011.9
20260509210016 18 70 3.2 6.4 0.23 10.11 9.04 96 1011.1